Time,TemperatureF,DewpointF,PressureIn,WindDirection,WindDirectionDegrees,WindSpeedMPH,WindSpeedGustMPH,Humidity,HourlyPrecipIn,Conditions,Clouds,dailyrainin,SoftwareType,DateUTC
2013-08-30 00:01:00,74.1,67.5,30.00,ENE,62,2.0,12.0,80,0.00,,---,0.20,VWS V13.00,2013-08-30 04:01:00,
2013-08-30 00:02:00,74.1,67.5,29.99,ENE,78,2.0,6.0,80,0.00,,---,0.00,VWS V13.00,2013-08-30 04:02:00,
2013-08-30 00:07:00,74.0,67.4,29.99,NE,43,4.0,6.0,80,0.00,,---,0.00,VWS V13.00,2013-08-30 04:07:00,
2013-08-30 00:12:00,73.9,67.3,29.99,ENE,62,2.0,10.0,80,0.00,,---,0.00,VWS V13.00,2013-08-30 04:12:00,
2013-08-30 00:17:00,73.8,67.2,30.00,North,5,4.0,10.0,80,0.00,,---,0.00,VWS V13.00,2013-08-30 04:17:00,
2013-08-30 00:22:00,73.7,67.2,29.99,NE,34,4.0,10.0,80,0.00,,---,0.00,VWS V13.00,2013-08-30 04:22:00,
2013-08-30 00:27:00,73.7,67.2,29.99,NNE,19,3.0,11.0,80,0.00,,---,0.00,VWS V13.00,2013-08-30 04:27:00,
2013-08-30 00:32:00,73.6,67.1,29.99,NNW,338,4.0,5.0,80,0.00,,---,0.00,VWS V13.00,2013-08-30 04:32:00,
2013-08-30 00:37:00,73.5,67.0,29.99,North,10,1.0,8.0,80,0.00,,---,0.00,VWS V13.00,2013-08-30 04:37:00,
2013-08-30 00:42:00,73.5,67.0,29.99,North,10,5.0,9.0,80,0.00,,---,0.00,VWS V13.00,2013-08-30 04:42:00,
2013-08-30 00:47:00,73.4,66.9,29.99,NNE,24,6.0,9.0,80,0.00,,---,0.00,VWS V13.00,2013-08-30 04:47:00,
2013-08-30 00:52:00,73.3,66.8,29.99,NNW,348,0.0,9.0,80,0.00,,---,0.00,VWS V13.00,2013-08-30 04:52:00,
2013-08-30 00:57:00,73.2,66.7,29.98,NNE,24,5.0,9.0,80,0.00,,---,0.00,VWS V13.00,2013-08-30 04:57:00,
2013-08-30 01:02:00,73.2,66.7,29.98,NE,47,4.0,8.0,80,0.00,,---,0.00,VWS V13.00,2013-08-30 05:02:00,
2013-08-30 01:07:00,73.2,66.7,29.98,NNW,327,7.0,8.0,80,0.00,,---,0.00,VWS V13.00,2013-08-30 05:07:00,
2013-08-30 01:12:00,73.1,66.6,29.98,NNE,24,5.0,8.0,80,0.00,,---,0.00,VWS V13.00,2013-08-30 05:12:00,
2013-08-30 01:17:00,73.0,66.5,29.98,NE,42,3.0,9.0,80,0.00,,---,0.00,VWS V13.00,2013-08-30 05:17:00,
2013-08-30 01:22:00,72.9,66.7,29.98,NNW,331,4.0,11.0,81,0.00,,---,0.00,VWS V13.00,2013-08-30 05:22:00,
2013-08-30 01:27:00,72.8,66.6,29.98,NNW,340,7.0,11.0,81,0.00,,---,0.00,VWS V13.00,2013-08-30 05:27:00,
2013-08-30 01:32:00,72.7,66.2,29.98,NE,46,4.0,6.0,80,0.00,,---,0.00,VWS V13.00,2013-08-30 05:32:00,
2013-08-30 01:37:00,72.6,66.4,29.97,ENE,59,1.0,8.0,81,0.00,,---,0.00,VWS V13.00,2013-08-30 05:37:00,
2013-08-30 01:42:00,72.6,66.4,29.97,NNE,22,6.0,10.0,81,0.00,,---,0.00,VWS V13.00,2013-08-30 05:42:00,
2013-08-30 01:47:00,72.5,66.3,29.97,NE,39,3.0,10.0,81,0.00,,---,0.00,VWS V13.00,2013-08-30 05:47:00,
2013-08-30 01:52:00,72.5,66.3,29.97,North,351,2.0,10.0,81,0.00,,---,0.00,VWS V13.00,2013-08-30 05:52:00,
2013-08-30 01:57:00,72.4,66.2,29.97,NE,36,5.0,10.0,81,0.00,,---,0.00,VWS V13.00,2013-08-30 05:57:00,
2013-08-30 02:02:00,72.3,66.2,29.97,North,11,3.0,3.0,81,0.00,,---,0.00,VWS V13.00,2013-08-30 06:02:00,
2013-08-30 02:07:00,72.2,66.1,29.97,ENE,57,0.0,8.0,81,0.00,,---,0.00,VWS V13.00,2013-08-30 06:07:00,
2013-08-30 02:12:00,72.1,65.9,29.97,NNE,19,3.0,8.0,81,0.00,,---,0.00,VWS V13.00,2013-08-30 06:12:00,
2013-08-30 02:17:00,71.9,65.8,29.97,North,10,3.0,8.0,81,0.00,,---,0.00,VWS V13.00,2013-08-30 06:17:00,
2013-08-30 02:22:00,71.8,65.7,29.97,NNE,21,4.0,8.0,81,0.00,,---,0.00,VWS V13.00,2013-08-30 06:22:00,
2013-08-30 02:27:00,71.7,65.6,29.97,NNE,21,4.0,10.0,81,0.00,,---,0.00,VWS V13.00,2013-08-30 06:27:00,
2013-08-30 02:32:00,71.5,65.4,29.97,NNW,344,0.0,5.0,81,0.00,,---,0.00,VWS V13.00,2013-08-30 06:32:00,
2013-08-30 02:37:00,71.4,65.3,29.97,NNE,13,1.0,8.0,81,0.00,,---,0.00,VWS V13.00,2013-08-30 06:37:00,
2013-08-30 02:42:00,71.3,65.2,29.97,NNE,18,6.0,9.0,81,0.00,,---,0.00,VWS V13.00,2013-08-30 06:42:00,
2013-08-30 02:47:00,71.2,65.1,29.97,North,11,6.0,9.0,81,0.00,,---,0.00,VWS V13.00,2013-08-30 06:47:00,
2013-08-30 02:52:00,71.1,65.0,29.97,NNE,22,4.0,9.0,81,0.00,,---,0.00,VWS V13.00,2013-08-30 06:52:00,
2013-08-30 02:57:00,71.0,64.9,29.97,North,11,5.0,9.0,81,0.00,,---,0.00,VWS V13.00,2013-08-30 06:57:00,
2013-08-30 03:02:00,71.0,64.9,29.97,NNE,31,5.0,7.0,81,0.00,,---,0.00,VWS V13.00,2013-08-30 07:02:00,
2013-08-30 03:07:00,71.0,64.9,29.97,NNE,25,2.0,7.0,81,0.00,,---,0.00,VWS V13.00,2013-08-30 07:07:00,
2013-08-30 03:12:00,71.0,64.9,29.97,North,9,2.0,7.0,81,0.00,,---,0.00,VWS V13.00,2013-08-30 07:12:00,
2013-08-30 03:17:00,70.9,64.8,29.98,NNE,22,4.0,8.0,81,0.00,,---,0.00,VWS V13.00,2013-08-30 07:17:00,
2013-08-30 03:22:00,70.8,64.7,29.98,North,5,3.0,8.0,81,0.00,,---,0.00,VWS V13.00,2013-08-30 07:22:00,
2013-08-30 03:27:00,70.7,64.6,29.98,North,5,3.0,8.0,81,0.00,,---,0.00,VWS V13.00,2013-08-30 07:27:00,
2013-08-30 03:32:00,70.7,64.6,29.98,North,10,0.0,0.0,81,0.00,,---,0.00,VWS V13.00,2013-08-30 07:32:00,
2013-08-30 03:37:00,70.6,64.5,29.98,North,9,1.0,4.0,81,0.00,,---,0.00,VWS V13.00,2013-08-30 07:37:00,
2013-08-30 03:42:00,70.5,64.4,29.98,North,355,0.0,4.0,81,0.00,,---,0.00,VWS V13.00,2013-08-30 07:42:00,
2013-08-30 03:47:00,70.4,64.7,29.98,NNE,24,0.0,5.0,82,0.00,,---,0.00,VWS V13.00,2013-08-30 07:47:00,
2013-08-30 03:52:00,70.3,64.2,29.98,North,355,0.0,5.0,81,0.00,,---,0.00,VWS V13.00,2013-08-30 07:52:00,
2013-08-30 03:57:00,70.2,64.1,29.98,North,360,1.0,5.0,81,0.00,,---,0.00,VWS V13.00,2013-08-30 07:57:00,
2013-08-30 04:02:00,70.1,64.0,29.98,North,360,2.0,2.0,81,0.00,,---,0.00,VWS V13.00,2013-08-30 08:02:00,
2013-08-30 04:07:00,70.1,64.0,29.98,NNE,18,1.0,5.0,81,0.00,,---,0.00,VWS V13.00,2013-08-30 08:07:00,
2013-08-30 04:12:00,70.0,63.9,29.98,NNE,16,0.0,5.0,81,0.00,,---,0.00,VWS V13.00,2013-08-30 08:12:00,
2013-08-30 04:17:00,69.9,64.2,29.98,NNE,16,0.0,5.0,82,0.00,,---,0.00,VWS V13.00,2013-08-30 08:17:00,
2013-08-30 04:22:00,69.7,64.0,29.99,NNE,16,0.0,5.0,82,0.00,,---,0.00,VWS V13.00,2013-08-30 08:22:00,
2013-08-30 04:27:00,69.7,64.0,29.99,North,349,1.0,5.0,82,0.00,,---,0.00,VWS V13.00,2013-08-30 08:27:00,
2013-08-30 04:32:00,69.7,64.0,29.99,North,349,0.0,3.0,82,0.00,,---,0.00,VWS V13.00,2013-08-30 08:32:00,
2013-08-30 04:37:00,69.9,64.2,29.99,North,360,3.0,5.0,82,0.00,,---,0.00,VWS V13.00,2013-08-30 08:37:00,
2013-08-30 04:42:00,69.9,64.2,29.99,North,9,2.0,5.0,82,0.00,,---,0.00,VWS V13.00,2013-08-30 08:42:00,
2013-08-30 04:47:00,70.0,64.3,29.99,NNW,338,3.0,5.0,82,0.00,,---,0.00,VWS V13.00,2013-08-30 08:47:00,
2013-08-30 04:52:00,70.0,64.3,29.99,North,5,5.0,5.0,82,0.00,,---,0.00,VWS V13.00,2013-08-30 08:52:00,
2013-08-30 04:57:00,70.0,64.3,29.99,NNE,17,2.0,5.0,82,0.00,,---,0.00,VWS V13.00,2013-08-30 08:57:00,
2013-08-30 05:02:00,70.0,64.3,29.99,North,355,2.0,4.0,82,0.00,,---,0.00,VWS V13.00,2013-08-30 09:02:00,
2013-08-30 05:07:00,70.0,64.3,29.99,North,360,3.0,7.0,82,0.00,,---,0.00,VWS V13.00,2013-08-30 09:07:00,
2013-08-30 05:12:00,69.9,64.2,29.99,North,360,0.0,7.0,82,0.00,,---,0.00,VWS V13.00,2013-08-30 09:12:00,
2013-08-30 05:17:00,69.9,64.2,29.99,North,355,1.0,7.0,82,0.00,,---,0.00,VWS V13.00,2013-08-30 09:17:00,
2013-08-30 05:22:00,69.8,64.1,29.99,North,10,2.0,7.0,82,0.00,,---,0.00,VWS V13.00,2013-08-30 09:22:00,
2013-08-30 05:27:00,69.8,64.1,29.99,NNE,19,2.0,7.0,82,0.00,,---,0.00,VWS V13.00,2013-08-30 09:27:00,
2013-08-30 05:32:00,69.8,64.1,29.99,North,355,2.0,3.0,82,0.00,,---,0.00,VWS V13.00,2013-08-30 09:32:00,
2013-08-30 05:37:00,69.7,64.0,29.99,North,355,2.0,4.0,82,0.00,,---,0.00,VWS V13.00,2013-08-30 09:37:00,
2013-08-30 05:42:00,69.7,64.0,29.99,North,9,3.0,5.0,82,0.00,,---,0.00,VWS V13.00,2013-08-30 09:42:00,
2013-08-30 05:47:00,69.7,64.0,30.00,NNW,343,3.0,7.0,82,0.00,,---,0.00,VWS V13.00,2013-08-30 09:47:00,
2013-08-30 05:52:00,69.7,64.0,30.00,North,360,2.0,7.0,82,0.00,,---,0.00,VWS V13.00,2013-08-30 09:52:00,
2013-08-30 05:57:00,69.7,64.0,30.00,North,360,3.0,7.0,82,0.00,,---,0.00,VWS V13.00,2013-08-30 09:57:00,
2013-08-30 06:02:00,69.7,64.0,30.00,North,5,2.0,4.0,82,0.00,,---,0.00,VWS V13.00,2013-08-30 10:02:00,
2013-08-30 06:07:00,69.7,64.0,30.00,NNW,347,5.0,6.0,82,0.00,,---,0.00,VWS V13.00,2013-08-30 10:07:00,
2013-08-30 06:12:00,69.7,64.0,30.00,North,5,5.0,7.0,82,0.00,,---,0.00,VWS V13.00,2013-08-30 10:12:00,
2013-08-30 06:17:00,69.6,63.9,30.00,NE,49,1.0,7.0,82,0.00,,---,0.00,VWS V13.00,2013-08-30 10:17:00,
2013-08-30 06:22:00,69.6,63.9,30.00,North,11,4.0,7.0,82,0.00,,---,0.00,VWS V13.00,2013-08-30 10:22:00,
2013-08-30 06:27:00,69.5,63.8,30.00,North,5,0.0,7.0,82,0.00,,---,0.00,VWS V13.00,2013-08-30 10:27:00,
2013-08-30 06:32:00,69.5,63.8,30.01,NNE,18,1.0,6.0,82,0.00,,---,0.00,VWS V13.00,2013-08-30 10:32:00,
2013-08-30 06:37:00,69.5,63.8,30.01,NNW,344,2.0,6.0,82,0.00,,---,0.00,VWS V13.00,2013-08-30 10:37:00,
2013-08-30 06:42:00,69.5,63.8,30.01,North,360,2.0,6.0,82,0.00,,---,0.00,VWS V13.00,2013-08-30 10:42:00,
2013-08-30 06:47:00,69.5,63.8,30.01,North,355,2.0,6.0,82,0.00,,---,0.00,VWS V13.00,2013-08-30 10:47:00,
2013-08-30 06:52:00,69.5,63.8,30.01,NNW,348,3.0,7.0,82,0.00,,---,0.00,VWS V13.00,2013-08-30 10:52:00,
2013-08-30 06:57:00,69.5,63.8,30.01,NE,34,3.0,9.0,82,0.00,,---,0.00,VWS V13.00,2013-08-30 10:57:00,
2013-08-30 07:02:00,69.5,63.8,30.02,NNE,26,3.0,6.0,82,0.00,,---,0.00,VWS V13.00,2013-08-30 11:02:00,
2013-08-30 07:07:00,69.4,63.7,30.02,NNE,28,4.0,8.0,82,0.00,,---,0.00,VWS V13.00,2013-08-30 11:07:00,
2013-08-30 07:12:00,69.4,63.7,30.02,North,355,3.0,8.0,82,0.00,,---,0.00,VWS V13.00,2013-08-30 11:12:00,
2013-08-30 07:17:00,69.4,63.7,30.02,NNW,344,5.0,9.0,82,0.00,,---,0.00,VWS V13.00,2013-08-30 11:17:00,
2013-08-30 07:22:00,69.5,63.8,30.02,NNE,23,5.0,10.0,82,0.00,,---,0.00,VWS V13.00,2013-08-30 11:22:00,
2013-08-30 07:27:00,69.6,64.2,30.02,North,355,2.0,10.0,83,0.00,,---,0.00,VWS V13.00,2013-08-30 11:27:00,
2013-08-30 07:32:00,69.6,64.2,30.02,North,355,3.0,7.0,83,0.00,,---,0.00,VWS V13.00,2013-08-30 11:32:00,
2013-08-30 07:37:00,69.8,64.4,30.02,NNE,25,4.0,10.0,83,0.00,,---,0.00,VWS V13.00,2013-08-30 11:37:00,
2013-08-30 07:42:00,69.9,64.5,30.02,North,355,6.0,10.0,83,0.00,,---,0.00,VWS V13.00,2013-08-30 11:42:00,
2013-08-30 07:47:00,70.0,64.6,30.02,NNW,348,3.0,10.0,83,0.00,,---,0.00,VWS V13.00,2013-08-30 11:47:00,
2013-08-30 07:52:00,70.1,64.7,30.02,North,355,8.0,10.0,83,0.00,,---,0.00,VWS V13.00,2013-08-30 11:52:00,
2013-08-30 07:57:00,70.3,64.9,30.02,North,11,3.0,12.0,83,0.00,,---,0.00,VWS V13.00,2013-08-30 11:57:00,
2013-08-30 08:02:00,70.4,65.0,30.03,North,5,0.0,2.0,83,0.00,,---,0.00,VWS V13.00,2013-08-30 12:02:00,
2013-08-30 08:07:00,70.6,65.2,30.03,NNE,20,5.0,10.0,83,0.00,,---,0.00,VWS V13.00,2013-08-30 12:07:00,
2013-08-30 08:12:00,70.8,65.4,30.03,NE,47,4.0,11.0,83,0.00,,---,0.00,VWS V13.00,2013-08-30 12:12:00,
2013-08-30 08:17:00,70.9,65.5,30.03,North,355,6.0,11.0,83,0.00,,---,0.00,VWS V13.00,2013-08-30 12:17:00,
2013-08-30 08:22:00,71.1,65.7,30.03,NNW,344,6.0,11.0,83,0.00,,---,0.00,VWS V13.00,2013-08-30 12:22:00,
2013-08-30 08:27:00,71.3,65.9,30.03,NW,322,4.0,11.0,83,0.00,,---,0.00,VWS V13.00,2013-08-30 12:27:00,
2013-08-30 08:32:00,71.5,66.1,30.03,NNW,333,4.0,6.0,83,0.00,,---,0.00,VWS V13.00,2013-08-30 12:32:00,
2013-08-30 08:37:00,71.8,66.4,30.03,NE,39,3.0,10.0,83,0.00,,---,0.00,VWS V13.00,2013-08-30 12:37:00,
2013-08-30 08:42:00,72.1,66.7,30.03,NE,54,3.0,10.0,83,0.00,,---,0.00,VWS V13.00,2013-08-30 12:42:00,
2013-08-30 08:47:00,72.3,66.8,30.03,North,10,5.0,10.0,83,0.00,,---,0.00,VWS V13.00,2013-08-30 12:47:00,
2013-08-30 08:52:00,72.6,67.2,30.04,NNE,15,8.0,12.0,83,0.00,,---,0.00,VWS V13.00,2013-08-30 12:52:00,
2013-08-30 08:57:00,72.8,67.3,30.04,North,11,7.0,12.0,83,0.00,,---,0.00,VWS V13.00,2013-08-30 12:57:00,
2013-08-30 09:02:00,73.1,67.6,30.04,NE,46,13.0,13.0,83,0.00,,---,0.00,VWS V13.00,2013-08-30 13:02:00,
2013-08-30 09:07:00,73.2,67.7,30.04,North,5,9.0,13.0,83,0.00,,---,0.00,VWS V13.00,2013-08-30 13:07:00,
2013-08-30 09:12:00,73.4,67.9,30.04,NNE,31,9.0,13.0,83,0.00,,---,0.00,VWS V13.00,2013-08-30 13:12:00,
2013-08-30 09:17:00,73.6,68.1,30.04,NNW,348,3.0,13.0,83,0.00,,---,0.00,VWS V13.00,2013-08-30 13:17:00,
2013-08-30 09:22:00,73.9,68.4,30.04,NE,42,3.0,13.0,83,0.00,,---,0.00,VWS V13.00,2013-08-30 13:22:00,
2013-08-30 09:27:00,74.1,68.6,30.04,North,355,4.0,13.0,83,0.00,,---,0.00,VWS V13.00,2013-08-30 13:27:00,
2013-08-30 09:32:00,74.2,68.7,30.04,NNE,13,11.0,11.0,83,0.00,,---,0.00,VWS V13.00,2013-08-30 13:32:00,
2013-08-30 09:37:00,74.3,68.8,30.04,NNE,32,6.0,11.0,83,0.00,,---,0.00,VWS V13.00,2013-08-30 13:37:00,
2013-08-30 09:42:00,74.7,69.2,30.04,North,5,5.0,11.0,83,0.00,,---,0.00,VWS V13.00,2013-08-30 13:42:00,
2013-08-30 09:47:00,75.1,69.2,30.04,North,360,8.0,11.0,82,0.00,,---,0.00,VWS V13.00,2013-08-30 13:47:00,
2013-08-30 09:52:00,75.5,70.0,30.04,NNE,19,6.0,11.0,83,0.00,,---,0.00,VWS V13.00,2013-08-30 13:52:00,
2013-08-30 09:57:00,75.7,69.8,30.04,NNE,16,2.0,11.0,82,0.00,,---,0.00,VWS V13.00,2013-08-30 13:57:00,
2013-08-30 10:02:00,75.9,70.0,30.04,NNE,17,1.0,6.0,82,0.00,,---,0.00,VWS V13.00,2013-08-30 14:02:00,
2013-08-30 10:07:00,76.2,70.3,30.04,NE,49,6.0,10.0,82,0.00,,---,0.00,VWS V13.00,2013-08-30 14:07:00,
2013-08-30 10:12:00,76.6,70.7,30.05,NE,46,4.0,11.0,82,0.00,,---,0.00,VWS V13.00,2013-08-30 14:12:00,
2013-08-30 10:17:00,76.9,71.0,30.04,NE,47,2.0,11.0,82,0.00,,---,0.00,VWS V13.00,2013-08-30 14:17:00,
2013-08-30 10:22:00,77.4,71.5,30.04,ENE,61,8.0,11.0,82,0.00,,---,0.00,VWS V13.00,2013-08-30 14:22:00,
2013-08-30 10:27:00,78.0,72.1,30.04,ENE,77,7.0,11.0,82,0.00,,---,0.00,VWS V13.00,2013-08-30 14:27:00,
2013-08-30 10:32:00,78.3,72.4,30.04,NE,53,3.0,7.0,82,0.00,,---,0.00,VWS V13.00,2013-08-30 14:32:00,
2013-08-30 10:37:00,78.5,72.2,30.04,NE,36,3.0,11.0,81,0.00,,---,0.00,VWS V13.00,2013-08-30 14:37:00,
2013-08-30 10:42:00,78.7,72.4,30.04,NNE,24,5.0,11.0,81,0.00,,---,0.00,VWS V13.00,2013-08-30 14:42:00,
2013-08-30 10:47:00,78.8,72.5,30.04,ESE,104,5.0,11.0,81,0.00,,---,0.00,VWS V13.00,2013-08-30 14:47:00,
2013-08-30 10:52:00,79.3,73.0,30.04,NE,38,11.0,11.0,81,0.00,,---,0.00,VWS V13.00,2013-08-30 14:52:00,
2013-08-30 10:57:00,79.4,73.1,30.04,East,94,5.0,11.0,81,0.00,,---,0.00,VWS V13.00,2013-08-30 14:57:00,
2013-08-30 11:02:00,79.6,73.3,30.04,ENE,69,6.0,6.0,81,0.00,,---,0.00,VWS V13.00,2013-08-30 15:02:00,
2013-08-30 11:07:00,79.8,73.1,30.04,NNE,29,4.0,12.0,80,0.00,,---,0.00,VWS V13.00,2013-08-30 15:07:00,
2013-08-30 11:12:00,79.8,73.1,30.04,NE,44,6.0,12.0,80,0.00,,---,0.00,VWS V13.00,2013-08-30 15:12:00,
2013-08-30 11:17:00,79.9,73.2,30.04,NE,42,4.0,12.0,80,0.00,,---,0.00,VWS V13.00,2013-08-30 15:17:00,
2013-08-30 11:22:00,79.9,73.2,30.04,NNE,25,3.0,12.0,80,0.00,,---,0.00,VWS V13.00,2013-08-30 15:22:00,
2013-08-30 11:27:00,79.8,73.1,30.04,NNE,12,3.0,13.0,80,0.00,,---,0.00,VWS V13.00,2013-08-30 15:27:00,
2013-08-30 11:32:00,79.9,73.2,30.03,NE,45,3.0,4.0,80,0.00,,---,0.00,VWS V13.00,2013-08-30 15:32:00,
2013-08-30 11:37:00,80.6,73.9,30.03,East,85,6.0,10.0,80,0.00,,---,0.00,VWS V13.00,2013-08-30 15:37:00,
2013-08-30 11:42:00,81.3,74.5,30.03,East,88,6.0,12.0,80,0.00,,---,0.00,VWS V13.00,2013-08-30 15:42:00,
2013-08-30 11:47:00,81.7,74.6,30.03,ENE,71,7.0,12.0,79,0.00,,---,0.00,VWS V13.00,2013-08-30 15:47:00,
2013-08-30 11:52:00,81.8,74.7,30.03,NE,41,2.0,12.0,79,0.00,,---,0.00,VWS V13.00,2013-08-30 15:52:00,
2013-08-30 11:57:00,81.7,74.6,30.03,East,91,9.0,12.0,79,0.00,,---,0.00,VWS V13.00,2013-08-30 15:57:00,
2013-08-30 12:00:00,64.8,57.4,29.89,WSW,248,0.0,0.0,77,0.00,,---,0.00,VWS V13.00,2013-08-30 16:00:00,
2013-08-30 12:02:00,81.9,74.8,30.03,East,101,1.0,5.0,79,0.00,,---,0.00,VWS V13.00,2013-08-30 16:02:00,
2013-08-30 12:07:00,82.2,75.0,30.03,East,88,8.0,8.0,79,0.00,,---,0.00,VWS V13.00,2013-08-30 16:07:00,
2013-08-30 12:12:00,82.5,75.3,30.03,SE,141,7.0,12.0,79,0.00,,---,0.00,VWS V13.00,2013-08-30 16:12:00,
2013-08-30 12:17:00,82.6,75.1,30.03,East,89,7.0,13.0,78,0.00,,---,0.00,VWS V13.00,2013-08-30 16:17:00,
2013-08-30 12:21:00,82.6,75.1,30.02,ESE,115,5.0,13.0,78,0.00,,---,0.00,VWS V13.00,2013-08-30 16:21:00,
2013-08-30 12:26:00,82.7,75.2,30.02,East,91,6.0,13.0,78,0.00,,---,0.00,VWS V13.00,2013-08-30 16:26:00,
2013-08-30 12:31:00,82.8,75.2,30.02,ESE,103,9.0,9.0,78,0.00,,---,0.00,VWS V13.00,2013-08-30 16:31:00,
2013-08-30 12:36:00,82.7,75.2,30.02,ESE,103,11.0,11.0,78,0.00,,---,0.00,VWS V13.00,2013-08-30 16:36:00,
2013-08-30 12:41:00,82.8,75.2,30.02,SE,126,6.0,13.0,78,0.00,,---,0.00,VWS V13.00,2013-08-30 16:41:00,
2013-08-30 12:46:00,82.6,74.7,30.02,SSE,148,9.0,13.0,77,0.00,,---,0.00,VWS V13.00,2013-08-30 16:46:00,
2013-08-30 12:51:00,82.3,74.4,30.02,ESE,115,11.0,13.0,77,0.00,,---,0.00,VWS V13.00,2013-08-30 16:51:00,
2013-08-30 12:56:00,82.5,74.9,30.02,ESE,121,7.0,13.0,78,0.00,,---,0.00,VWS V13.00,2013-08-30 16:56:00,
2013-08-30 13:01:00,82.7,74.8,30.02,SE,138,9.0,9.0,77,0.00,,---,0.00,VWS V13.00,2013-08-30 17:01:00,
2013-08-30 13:06:00,82.9,74.9,30.02,SE,144,9.0,12.0,77,0.00,,---,0.00,VWS V13.00,2013-08-30 17:06:00,
2013-08-30 13:11:00,82.9,74.9,30.02,SE,137,9.0,12.0,77,0.00,,---,0.00,VWS V13.00,2013-08-30 17:11:00,
2013-08-30 13:16:00,82.7,74.8,30.02,SE,132,7.0,12.0,77,0.00,,---,0.00,VWS V13.00,2013-08-30 17:16:00,
2013-08-30 13:21:00,82.6,74.7,30.02,East,96,8.0,13.0,77,0.00,,---,0.00,VWS V13.00,2013-08-30 17:21:00,
2013-08-30 13:26:00,82.6,74.7,30.02,SSE,152,7.0,13.0,77,0.00,,---,0.00,VWS V13.00,2013-08-30 17:26:00,
2013-08-30 13:31:00,82.6,74.7,30.01,ESE,122,7.0,12.0,77,0.00,,---,0.00,VWS V13.00,2013-08-30 17:31:00,
2013-08-30 13:36:00,82.6,74.7,30.01,SE,132,8.0,13.0,77,0.00,,---,0.00,VWS V13.00,2013-08-30 17:36:00,
2013-08-30 13:41:00,82.7,74.8,30.01,ESE,123,6.0,13.0,77,0.00,,---,0.00,VWS V13.00,2013-08-30 17:41:00,
2013-08-30 13:46:00,82.8,74.9,30.01,SE,132,7.0,13.0,77,0.00,,---,0.00,VWS V13.00,2013-08-30 17:46:00,
2013-08-30 13:51:00,82.9,74.9,30.01,SE,132,7.0,13.0,77,0.00,,---,0.00,VWS V13.00,2013-08-30 17:51:00,
2013-08-30 13:56:00,82.7,74.8,30.01,ESE,122,7.0,13.0,77,0.00,,---,0.00,VWS V13.00,2013-08-30 17:56:00,
2013-08-30 14:01:00,82.5,74.6,30.01,SE,132,12.0,12.0,77,0.00,,---,0.00,VWS V13.00,2013-08-30 18:01:00,
2013-08-30 14:06:00,82.5,74.6,30.01,SE,130,9.0,13.0,77,0.00,,---,0.00,VWS V13.00,2013-08-30 18:06:00,
2013-08-30 14:11:00,82.7,74.8,30.01,ESE,122,6.0,14.0,77,0.00,,---,0.00,VWS V13.00,2013-08-30 18:11:00,
2013-08-30 14:16:00,82.8,74.9,30.01,SE,134,6.0,14.0,77,0.00,,---,0.00,VWS V13.00,2013-08-30 18:16:00,
2013-08-30 14:21:00,82.9,74.9,30.01,SE,144,6.0,14.0,77,0.00,,---,0.00,VWS V13.00,2013-08-30 18:21:00,
2013-08-30 14:26:00,82.9,74.9,30.01,ESE,121,9.0,14.0,77,0.00,,---,0.00,VWS V13.00,2013-08-30 18:26:00,
2013-08-30 14:31:00,82.8,74.5,30.00,SE,126,7.0,8.0,76,0.00,,---,0.00,VWS V13.00,2013-08-30 18:31:00,
2013-08-30 14:36:00,82.6,74.3,30.00,SE,126,11.0,14.0,76,0.00,,---,0.00,VWS V13.00,2013-08-30 18:36:00,
2013-08-30 14:41:00,82.4,74.1,30.00,SSE,159,9.0,14.0,76,0.00,,---,0.00,VWS V13.00,2013-08-30 18:41:00,
2013-08-30 14:46:00,82.3,74.0,30.00,East,101,9.0,14.0,76,0.00,,---,0.00,VWS V13.00,2013-08-30 18:46:00,
2013-08-30 14:51:00,82.5,74.2,30.00,ESE,120,6.0,14.0,76,0.00,,---,0.00,VWS V13.00,2013-08-30 18:51:00,
2013-08-30 14:56:00,82.6,74.3,30.00,East,101,8.0,14.0,76,0.00,,---,0.00,VWS V13.00,2013-08-30 18:56:00,
2013-08-30 15:01:00,82.8,74.5,29.99,ESE,110,7.0,9.0,76,0.00,,---,0.00,VWS V13.00,2013-08-30 19:01:00,
2013-08-30 15:06:00,82.9,74.6,29.99,SE,128,6.0,13.0,76,0.00,,---,0.00,VWS V13.00,2013-08-30 19:06:00,
2013-08-30 15:11:00,82.8,74.5,29.99,ESE,120,7.0,13.0,76,0.00,,---,0.00,VWS V13.00,2013-08-30 19:11:00,
2013-08-30 15:16:00,82.5,74.2,29.99,SE,136,10.0,14.0,76,0.00,,---,0.00,VWS V13.00,2013-08-30 19:16:00,
2013-08-30 15:21:00,82.3,74.0,29.99,ESE,113,7.0,14.0,76,0.00,,---,0.00,VWS V13.00,2013-08-30 19:21:00,
2013-08-30 15:26:00,82.2,73.9,29.99,SE,124,9.0,14.0,76,0.00,,---,0.00,VWS V13.00,2013-08-30 19:26:00,
2013-08-30 15:31:00,82.2,73.9,29.99,SE,132,8.0,8.0,76,0.00,,---,0.00,VWS V13.00,2013-08-30 19:31:00,
2013-08-30 15:36:00,82.4,74.1,29.99,East,95,11.0,15.0,76,0.00,,---,0.00,VWS V13.00,2013-08-30 19:36:00,
2013-08-30 15:41:00,82.6,74.3,29.99,ESE,121,8.0,15.0,76,0.00,,---,0.00,VWS V13.00,2013-08-30 19:41:00,
2013-08-30 15:46:00,82.5,74.2,29.99,SE,129,8.0,15.0,76,0.00,,---,0.00,VWS V13.00,2013-08-30 19:46:00,
2013-08-30 15:51:00,82.5,74.2,29.99,ESE,113,8.0,15.0,76,0.00,,---,0.00,VWS V13.00,2013-08-30 19:51:00,
2013-08-30 15:56:00,82.5,74.2,29.99,ESE,120,13.0,15.0,76,0.00,,---,0.00,VWS V13.00,2013-08-30 19:56:00,
2013-08-30 16:01:00,82.5,74.2,29.99,ESE,117,11.0,11.0,76,0.00,,---,0.00,VWS V13.00,2013-08-30 20:01:00,
2013-08-30 16:06:00,82.7,74.4,29.99,ESE,108,8.0,14.0,76,0.00,,---,0.00,VWS V13.00,2013-08-30 20:06:00,
2013-08-30 16:11:00,82.9,74.6,29.99,East,98,8.0,14.0,76,0.00,,---,0.00,VWS V13.00,2013-08-30 20:11:00,
2013-08-30 16:16:00,82.7,74.4,29.99,ESE,108,11.0,15.0,76,0.00,,---,0.00,VWS V13.00,2013-08-30 20:16:00,
2013-08-30 16:21:00,82.6,74.3,29.99,ESE,103,6.0,16.0,76,0.00,,---,0.00,VWS V13.00,2013-08-30 20:21:00,
2013-08-30 16:26:00,82.6,74.3,29.99,SE,144,8.0,16.0,76,0.00,,---,0.00,VWS V13.00,2013-08-30 20:26:00,
2013-08-30 16:32:00,82.5,74.2,29.99,East,93,7.0,11.0,76,0.00,,---,0.00,VWS V13.00,2013-08-30 20:32:00,
2013-08-30 16:37:00,82.6,74.3,29.99,ESE,115,9.0,14.0,76,0.00,,---,0.00,VWS V13.00,2013-08-30 20:37:00,
2013-08-30 16:42:00,82.6,74.3,29.99,East,84,8.0,14.0,76,0.00,,---,0.00,VWS V13.00,2013-08-30 20:42:00,
2013-08-30 16:47:00,82.5,74.2,29.99,ESE,106,8.0,15.0,76,0.00,,---,0.00,VWS V13.00,2013-08-30 20:47:00,
2013-08-30 16:52:00,82.4,74.1,29.99,East,86,7.0,15.0,76,0.00,,---,0.00,VWS V13.00,2013-08-30 20:52:00,
2013-08-30 16:57:00,82.3,74.0,29.99,East,96,7.0,15.0,76,0.00,,---,0.00,VWS V13.00,2013-08-30 20:57:00,
2013-08-30 17:02:00,82.2,73.9,29.99,SE,124,11.0,13.0,76,0.00,,---,0.00,VWS V13.00,2013-08-30 21:02:00,
2013-08-30 17:07:00,82.1,73.8,29.99,East,84,6.0,14.0,76,0.00,,---,0.00,VWS V13.00,2013-08-30 21:07:00,
2013-08-30 17:12:00,81.9,73.6,29.99,East,83,10.0,14.0,76,0.00,,---,0.00,VWS V13.00,2013-08-30 21:12:00,
2013-08-30 17:17:00,81.9,73.6,29.99,ESE,107,11.0,14.0,76,0.00,,---,0.00,VWS V13.00,2013-08-30 21:17:00,
2013-08-30 17:22:00,82.0,73.7,29.99,East,94,7.0,14.0,76,0.00,,---,0.00,VWS V13.00,2013-08-30 21:22:00,
2013-08-30 17:27:00,81.9,73.6,29.99,East,89,7.0,14.0,76,0.00,,---,0.00,VWS V13.00,2013-08-30 21:27:00,
2013-08-30 17:32:00,81.6,73.3,29.99,ENE,65,2.0,7.0,76,0.00,,---,0.00,VWS V13.00,2013-08-30 21:32:00,
2013-08-30 17:37:00,81.5,73.2,29.99,ESE,104,8.0,12.0,76,0.00,,---,0.00,VWS V13.00,2013-08-30 21:37:00,
2013-08-30 17:42:00,81.4,73.1,29.99,ENE,75,6.0,13.0,76,0.00,,---,0.00,VWS V13.00,2013-08-30 21:42:00,
2013-08-30 17:47:00,81.3,73.0,29.99,ENE,75,6.0,14.0,76,0.00,,---,0.00,VWS V13.00,2013-08-30 21:47:00,
2013-08-30 17:52:00,81.3,73.0,29.99,East,82,7.0,14.0,76,0.00,,---,0.00,VWS V13.00,2013-08-30 21:52:00,
2013-08-30 17:57:00,81.1,72.8,29.99,East,98,7.0,14.0,76,0.00,,---,0.00,VWS V13.00,2013-08-30 21:57:00,
2013-08-30 18:02:00,81.0,72.7,29.99,East,80,6.0,9.0,76,0.00,,---,0.00,VWS V13.00,2013-08-30 22:02:00,
2013-08-30 18:07:00,80.9,72.6,29.99,ESE,104,5.0,11.0,76,0.00,,---,0.00,VWS V13.00,2013-08-30 22:07:00,
2013-08-30 18:12:00,80.6,72.3,29.99,East,91,5.0,12.0,76,0.00,,---,0.00,VWS V13.00,2013-08-30 22:12:00,
2013-08-30 18:17:00,80.6,72.3,29.99,ESE,112,5.0,12.0,76,0.00,,---,0.00,VWS V13.00,2013-08-30 22:17:00,
2013-08-30 18:22:00,80.6,72.3,29.99,East,96,6.0,12.0,76,0.00,,---,0.00,VWS V13.00,2013-08-30 22:22:00,
2013-08-30 18:27:00,80.5,72.2,29.99,ESE,106,8.0,12.0,76,0.00,,---,0.00,VWS V13.00,2013-08-30 22:27:00,
2013-08-30 18:32:00,80.5,72.2,29.99,SE,136,7.0,8.0,76,0.00,,---,0.00,VWS V13.00,2013-08-30 22:32:00,
2013-08-30 18:37:00,80.4,72.2,29.99,SE,142,6.0,11.0,76,0.00,,---,0.00,VWS V13.00,2013-08-30 22:37:00,
2013-08-30 18:42:00,80.4,72.2,29.98,East,94,5.0,11.0,76,0.00,,---,0.00,VWS V13.00,2013-08-30 22:42:00,
2013-08-30 18:47:00,80.3,72.1,29.98,East,88,6.0,11.0,76,0.00,,---,0.00,VWS V13.00,2013-08-30 22:47:00,
2013-08-30 18:52:00,80.2,71.9,29.98,East,90,5.0,11.0,76,0.00,,---,0.00,VWS V13.00,2013-08-30 22:52:00,
2013-08-30 18:57:00,80.2,71.9,29.98,ESE,109,7.0,11.0,76,0.00,,---,0.00,VWS V13.00,2013-08-30 22:57:00,
2013-08-30 19:02:00,80.0,71.8,29.98,ESE,113,9.0,9.0,76,0.00,,---,0.00,VWS V13.00,2013-08-30 23:02:00,
2013-08-30 19:07:00,79.9,71.7,29.98,ESE,114,7.0,12.0,76,0.00,,---,0.00,VWS V13.00,2013-08-30 23:07:00,
2013-08-30 19:12:00,79.7,71.5,29.98,SE,134,9.0,12.0,76,0.00,,---,0.00,VWS V13.00,2013-08-30 23:12:00,
2013-08-30 19:17:00,79.6,71.4,29.98,East,92,8.0,12.0,76,0.00,,---,0.00,VWS V13.00,2013-08-30 23:17:00,
2013-08-30 19:22:00,79.4,71.6,29.99,East,97,11.0,12.0,77,0.00,,---,0.00,VWS V13.00,2013-08-30 23:22:00,
2013-08-30 19:27:00,79.3,71.5,29.98,SE,134,7.0,12.0,77,0.00,,---,0.00,VWS V13.00,2013-08-30 23:27:00,
2013-08-30 19:32:00,79.3,71.5,29.98,East,84,7.0,13.0,77,0.00,,---,0.00,VWS V13.00,2013-08-30 23:32:00,
2013-08-30 19:37:00,79.3,71.5,29.98,ESE,105,6.0,13.0,77,0.00,,---,0.00,VWS V13.00,2013-08-30 23:37:00,
2013-08-30 19:42:00,79.2,71.4,29.98,ESE,110,8.0,13.0,77,0.00,,---,0.00,VWS V13.00,2013-08-30 23:42:00,
2013-08-30 19:47:00,79.0,71.2,29.98,East,90,12.0,14.0,77,0.00,,---,0.00,VWS V13.00,2013-08-30 23:47:00,
2013-08-30 19:52:00,78.7,70.9,29.98,East,80,5.0,14.0,77,0.00,,---,0.00,VWS V13.00,2013-08-30 23:52:00,
2013-08-30 19:57:00,78.7,70.9,29.98,ESE,103,12.0,14.0,77,0.00,,---,0.00,VWS V13.00,2013-08-30 23:57:00,
2013-08-30 20:02:00,78.7,70.9,29.98,ESE,113,12.0,12.0,77,0.00,,---,0.00,VWS V13.00,2013-08-31 00:02:00,
2013-08-30 20:07:00,78.7,70.9,29.99,ESE,114,6.0,14.0,77,0.00,,---,0.00,VWS V13.00,2013-08-31 00:07:00,
2013-08-30 20:12:00,78.7,70.9,29.99,East,85,8.0,14.0,77,0.00,,---,0.00,VWS V13.00,2013-08-31 00:12:00,
2013-08-30 20:17:00,78.6,70.8,29.99,ESE,105,7.0,14.0,77,0.00,,---,0.00,VWS V13.00,2013-08-31 00:17:00,
2013-08-30 20:22:00,78.5,70.7,29.99,SE,126,7.0,14.0,77,0.00,,---,0.00,VWS V13.00,2013-08-31 00:22:00,
2013-08-30 20:27:00,78.4,71.0,29.99,ESE,120,8.0,14.0,78,0.00,,---,0.00,VWS V13.00,2013-08-31 00:27:00,
2013-08-30 20:32:00,78.5,71.1,30.00,SE,128,9.0,12.0,78,0.00,,---,0.00,VWS V13.00,2013-08-31 00:32:00,
2013-08-30 20:37:00,78.7,71.3,30.00,ESE,105,5.0,12.0,78,0.00,,---,0.00,VWS V13.00,2013-08-31 00:37:00,
2013-08-30 20:42:00,78.7,71.3,30.00,ESE,110,4.0,13.0,78,0.00,,---,0.00,VWS V13.00,2013-08-31 00:42:00,
2013-08-30 20:47:00,78.7,71.3,30.00,East,95,9.0,13.0,78,0.00,,---,0.00,VWS V13.00,2013-08-31 00:47:00,
2013-08-30 20:52:00,78.7,71.3,30.00,SE,130,7.0,13.0,78,0.00,,---,0.00,VWS V13.00,2013-08-31 00:52:00,
2013-08-30 20:57:00,78.6,71.2,30.00,ENE,69,4.0,13.0,78,0.00,,---,0.00,VWS V13.00,2013-08-31 00:57:00,
2013-08-30 21:02:00,78.6,71.2,30.00,East,96,6.0,11.0,78,0.00,,---,0.00,VWS V13.00,2013-08-31 01:02:00,
2013-08-30 21:07:00,78.5,71.1,30.00,ESE,107,6.0,11.0,78,0.00,,---,0.00,VWS V13.00,2013-08-31 01:07:00,
2013-08-30 21:12:00,78.5,71.1,30.00,East,85,5.0,11.0,78,0.00,,---,0.00,VWS V13.00,2013-08-31 01:12:00,
2013-08-30 21:17:00,78.4,71.0,30.00,ESE,115,9.0,11.0,78,0.00,,---,0.00,VWS V13.00,2013-08-31 01:17:00,
2013-08-30 21:22:00,78.4,71.0,30.00,East,101,5.0,11.0,78,0.00,,---,0.00,VWS V13.00,2013-08-31 01:22:00,
2013-08-30 21:27:00,78.3,71.3,30.00,ESE,115,6.0,11.0,79,0.00,,---,0.00,VWS V13.00,2013-08-31 01:27:00,
2013-08-30 21:32:00,78.3,71.3,30.00,East,101,5.0,5.0,79,0.00,,---,0.00,VWS V13.00,2013-08-31 01:32:00,
2013-08-30 21:37:00,78.3,71.3,30.00,SE,128,5.0,8.0,79,0.00,,---,0.00,VWS V13.00,2013-08-31 01:37:00,
2013-08-30 21:42:00,78.3,71.3,30.00,SE,128,5.0,9.0,79,0.00,,---,0.00,VWS V13.00,2013-08-31 01:42:00,
2013-08-30 21:47:00,78.3,71.3,30.00,ESE,104,5.0,9.0,79,0.00,,---,0.00,VWS V13.00,2013-08-31 01:47:00,
2013-08-30 21:52:00,78.3,71.3,30.00,East,96,5.0,9.0,79,0.00,,---,0.00,VWS V13.00,2013-08-31 01:52:00,
2013-08-30 21:57:00,78.2,71.2,30.00,ESE,119,4.0,9.0,79,0.00,,---,0.00,VWS V13.00,2013-08-31 01:57:00,
2013-08-30 22:02:00,78.1,71.1,30.00,ESE,102,4.0,8.0,79,0.00,,---,0.00,VWS V13.00,2013-08-31 02:02:00,
2013-08-30 22:07:00,77.9,70.9,30.00,ESE,105,4.0,8.0,79,0.00,,---,0.00,VWS V13.00,2013-08-31 02:07:00,
2013-08-30 22:12:00,77.9,70.9,30.00,ESE,114,8.0,8.0,79,0.00,,---,0.00,VWS V13.00,2013-08-31 02:12:00,
2013-08-30 22:17:00,77.8,70.8,30.00,ENE,78,5.0,8.0,79,0.00,,---,0.00,VWS V13.00,2013-08-31 02:17:00,
2013-08-30 22:22:00,77.7,70.7,30.00,East,85,4.0,8.0,79,0.00,,---,0.00,VWS V13.00,2013-08-31 02:22:00,
2013-08-30 22:27:00,77.7,70.7,30.00,East,92,2.0,8.0,79,0.00,,---,0.00,VWS V13.00,2013-08-31 02:27:00,
2013-08-30 22:32:00,77.6,70.6,30.00,ESE,107,5.0,7.0,79,0.00,,---,0.00,VWS V13.00,2013-08-31 02:32:00,
2013-08-30 22:37:00,77.5,70.5,30.00,East,88,3.0,7.0,79,0.00,,---,0.00,VWS V13.00,2013-08-31 02:37:00,
2013-08-30 22:42:00,77.5,70.5,30.00,East,89,3.0,7.0,79,0.00,,---,0.00,VWS V13.00,2013-08-31 02:42:00,
2013-08-30 22:47:00,77.5,70.5,30.00,SE,130,5.0,7.0,79,0.00,,---,0.00,VWS V13.00,2013-08-31 02:47:00,
2013-08-30 22:52:00,77.6,70.6,30.00,East,97,4.0,7.0,79,0.00,,---,0.00,VWS V13.00,2013-08-31 02:52:00,
2013-08-30 22:57:00,77.6,70.6,30.00,East,96,4.0,7.0,79,0.00,,---,0.00,VWS V13.00,2013-08-31 02:57:00,
2013-08-30 23:02:00,77.7,70.7,30.00,ESE,107,2.0,7.0,79,0.00,,---,0.00,VWS V13.00,2013-08-31 03:02:00,
2013-08-30 23:07:00,77.8,70.8,30.00,ESE,111,4.0,7.0,79,0.00,,---,0.00,VWS V13.00,2013-08-31 03:07:00,
2013-08-30 23:12:00,77.8,70.8,30.00,ESE,105,5.0,7.0,79,0.00,,---,0.00,VWS V13.00,2013-08-31 03:12:00,
2013-08-30 23:17:00,77.8,70.8,30.00,SE,128,5.0,7.0,79,0.00,,---,0.00,VWS V13.00,2013-08-31 03:17:00,
2013-08-30 23:22:00,77.8,70.8,29.99,ESE,103,4.0,7.0,79,0.00,,---,0.00,VWS V13.00,2013-08-31 03:22:00,
2013-08-30 23:27:00,77.8,70.8,29.99,SE,131,2.0,7.0,79,0.00,,---,0.00,VWS V13.00,2013-08-31 03:27:00,
2013-08-30 23:32:00,77.8,71.1,29.99,East,99,2.0,6.0,80,0.00,,---,0.00,VWS V13.00,2013-08-31 03:32:00,
2013-08-30 23:37:00,77.8,71.1,29.99,ESE,103,0.0,6.0,80,0.00,,---,0.00,VWS V13.00,2013-08-31 03:37:00,
2013-08-30 23:42:00,77.7,71.0,29.99,East,100,2.0,6.0,80,0.00,,---,0.00,VWS V13.00,2013-08-31 03:42:00,
2013-08-30 23:47:00,77.7,71.0,29.99,ESE,109,5.0,6.0,80,0.00,,---,0.00,VWS V13.00,2013-08-31 03:47:00,
2013-08-30 23:52:00,77.6,70.9,29.99,East,101,0.0,6.0,80,0.00,,---,0.00,VWS V13.00,2013-08-31 03:52:00,
2013-08-30 23:57:00,77.6,70.9,29.99,East,101,0.0,6.0,80,0.00,,---,0.00,VWS V13.00,2013-08-31 03:57:00,